Location: Bismarck
(46.7731°N, 100.8200°W)
Time: 08:13:08
(UTC-05:00)

Amateur Radio Satellites - All Passes

Search period start: 07 July 2015 07:43
Search period end: 08 July 2015 07:43
Location: Bismarck, 46.7731°N, 100.8200°W

Satellite Date Start Highest point End Downlink Frequencies (MHz)
Time Altitude Azimuth
STRAND 1 07 Jul 07:48:57 07:54:07 88° 66° (ENE) 07:59:20 437.568
BEESAT 2 07 Jul 07:50:27 07:54:25 50° 121° (ESE) 07:58:28 435.950
PRISM 07 Jul 07:51:43 07:55:55 88° 247° (WSW) 08:00:10 437.425
AIST 2 07 Jul 07:52:52 07:55:20 16° 112° (ESE) 07:57:57 435.215
DANDE 07 Jul 08:00:16 08:05:33 27° 94° (E) 08:09:56 436.750
CUTE-I 07 Jul 08:01:51 08:07:11 63° 101° (ESE) 08:12:30 437.470
AUBIESAT-1 07 Jul 08:12:41 08:14:42 15° 57° (ENE) 08:16:54 437.475
CUSAT 1 07 Jul 08:17:18 08:22:53 45° 98° (E) 08:27:11 437.405
GONETS M04 07 Jul 08:20:46 08:26:32 21° 78° (ENE) 08:32:41
BRITE-PL 07 Jul 08:22:18 08:22:41 10° 84° (E) 08:23:19 437.365/2234.400
Cubesat XI-IV 07 Jul 08:37:02 08:42:24 68° 288° (WNW) 08:47:43 437.490
O/OREOS (USA 219) 07 Jul 08:41:41 08:46:04 57° 298° (WNW) 08:50:30 437.305
M-CUBED/EXP-1 PRIME 07 Jul 08:48:37 08:51:47 41° 65° (ENE) 08:55:10 437.505
ISS 07 Jul 08:53:22 08:56:35 63° 150° (SSE) 08:59:48 145.825
Cosmos 2504 07 Jul 08:54:01 08:58:38 18° 302° (WNW) 09:03:03 435.465 / 435.565
VERMONT LUNAR 07 Jul 09:03:08 09:05:44 24° 174° (S) 09:08:20 437.305
CANX-2 07 Jul 09:04:05 09:05:10 11° 85° (E) 09:06:30 2200.000
BEESAT 3 07 Jul 09:12:28 09:16:00 27° 319° (NW) 09:19:32 437.485
GOMX 1 07 Jul 09:17:35 09:20:57 24° 93° (E) 09:24:21 467.674
AO-7 07 Jul 09:21:48 09:25:11 13° 325° (NW) 09:28:13 29.400- 29.500
RS-15 07 Jul 09:28:34 09:39:08 40° 26° (NNE) 09:50:15 29.354- 29.394
AIST 2 07 Jul 09:29:12 09:33:27 69° 309° (NW) 09:37:44 435.215
BEESAT 2 07 Jul 09:29:17 09:32:44 24° 321° (NW) 09:36:09 435.950
STRAND 1 07 Jul 09:31:40 09:34:09 13° 274° (W) 09:36:22 437.568
SEEDS 07 Jul 09:41:51 09:45:00 20° 91° (E) 09:48:16 437.485
DANDE 07 Jul 09:42:17 09:48:39 49° 284° (WNW) 09:53:29 436.750
CUTE-I 07 Jul 09:42:46 09:46:52 22° 300° (WNW) 09:50:49 437.470
AAUSAT CUBESAT 2 07 Jul 09:45:35 09:48:01 15° 89° (E) 09:50:38 437.432
AUBIESAT-1 07 Jul 09:45:54 09:49:09 43° 256° (WSW) 09:52:35 437.475
DOVE 4 07 Jul 09:46:19 09:49:57 29° 95° (E) 09:53:38 437.250
BRITE-PL 07 Jul 09:57:41 10:02:01 78° 285° (WNW) 10:06:10 437.365/2234.400
CUSAT 1 07 Jul 10:01:03 10:05:30 23° 289° (WNW) 10:09:04 437.405
PHONESAT 2.4 07 Jul 10:05:23 10:08:10 23° 168° (SSE) 10:10:59 2401.200-2431.200
CINEMA 3 07 Jul 10:09:08 10:12:32 24° 93° (E) 10:16:04 145.822/145.860
COMPASS 1 07 Jul 10:13:27 10:17:19 34° 96° (E) 10:21:12 437.405
GONETS M04 07 Jul 10:13:30 10:22:19 89° 101° (ESE) 10:31:07
Cosmos 2499 07 Jul 10:14:39 10:19:08 19° 80° (E) 10:23:59 435.465 / 435.565
ANTELSAT 07 Jul 10:15:44 10:18:42 19° 63° (ENE) 10:21:45 437.575/2403.000
HO-68 07 Jul 10:16:09 10:23:12 57° 101° (E) 10:30:15 435.675
Cubesat XI-IV 07 Jul 10:19:27 10:21:38 12° 306° (NW) 10:23:34 437.490
M-CUBED/EXP-1 PRIME 07 Jul 10:25:06 10:26:59 14° 265° (W) 10:28:47 437.505
TIGRISAT 07 Jul 10:26:15 10:29:33 23° 65° (ENE) 10:32:56 435.000
ZACube-1 07 Jul 10:26:26 10:27:47 12° 87° (E) 10:29:23 437.345
Oscar 11 07 Jul 10:26:50 10:29:59 20° 91° (E) 10:33:15 145.826/435.025
ISS 07 Jul 10:30:02 10:33:07 39° 349° (N) 10:36:11 145.825
CUTE 1.7 + AOD 2 07 Jul 10:33:33 10:37:52 85° 103° (ESE) 10:42:11 437.475
CUBEBUG 2 07 Jul 10:36:23 10:39:46 23° 93° (E) 10:43:17 437.445
CANX-2 07 Jul 10:37:26 10:41:45 80° 285° (WNW) 10:46:03 2200.000
POPSAT HIP 1 07 Jul 10:37:36 10:39:45 14° 61° (ENE) 10:42:04 437.405
QB50P2 07 Jul 10:37:36 10:39:52 15° 61° (ENE) 10:42:16 145.880/145.840
VERMONT LUNAR 07 Jul 10:39:39 10:42:08 22° 191° (S) 10:44:37 437.305
GOMX 1 07 Jul 10:55:27 10:59:14 33° 291° (WNW) 11:02:56 467.674
FUNcube-1 07 Jul 10:59:28 11:02:57 25° 93° (E) 11:06:33 145.935
UNISAT 6 07 Jul 11:06:19 11:10:30 58° 73° (ENE) 11:14:43 437.425
AIST 2 07 Jul 11:10:15 11:12:49 15° 330° (NNW) 11:15:19 435.215
DELFI C3 07 Jul 11:13:27 11:17:19 40° 98° (E) 11:21:11 145.870
QB50P1 07 Jul 11:14:27 11:18:10 31° 68° (ENE) 11:21:56 145.935-145.965
SEEDS 07 Jul 11:16:58 11:21:00 42° 289° (WNW) 11:25:02 437.485
AAUSAT CUBESAT 2 07 Jul 11:19:53 11:24:02 55° 287° (WNW) 11:28:09 437.432
UWE-3 07 Jul 11:20:15 11:24:24 53° 100° (E) 11:28:38 435.000/436.395/437.385
DOVE 4 07 Jul 11:24:10 11:27:43 27° 293° (WNW) 11:31:12 437.250
NANOSAT C BR1 07 Jul 11:27:05 11:31:02 40° 70° (ENE) 11:35:02 145.865
DUCHIFAT 1 07 Jul 11:32:48 11:36:50 45° 71° (ENE) 11:40:53 145.980
BUGSAT 1 07 Jul 11:35:41 11:39:27 33° 69° (ENE) 11:43:15 437.445
RS-15 07 Jul 11:41:33 11:53:16 89° 53° (NE) 12:05:28 29.354- 29.394
POLYITAN 1 07 Jul 11:41:56 11:46:06 60° 73° (ENE) 11:50:16 437.675
PHONESAT 2.4 07 Jul 11:42:42 11:45:42 28° 184° (S) 11:48:41 2401.200-2431.200
DX 1 07 Jul 11:44:13 11:47:51 26° 94° (E) 11:51:32 434.975-435.025
ESTCUBE 1 07 Jul 11:44:42 11:45:39 11° 85° (E) 11:46:51 437.505/2401.250
CINEMA 3 07 Jul 11:46:03 11:49:50 33° 291° (WNW) 11:53:39 145.822/145.860
VELOX 1 07 Jul 11:47:41 11:50:29 17° 90° (E) 11:53:23 145.980
COMPASS 1 07 Jul 11:49:20 11:52:52 25° 293° (WNW) 11:56:19 437.405
ANTELSAT 07 Jul 11:51:03 11:55:11 48° 261° (W) 11:59:20 437.575/2403.000
HUMSAT D 07 Jul 11:52:56 11:56:53 40° 98° (E) 12:00:52 437.325/437.525
UKube-1 07 Jul 11:59:58 12:03:55 34° 97° (E) 12:07:53 .
ZACube-1 07 Jul 12:00:29 12:04:43 75° 286° (WNW) 12:09:02 437.345
TIGRISAT 07 Jul 12:02:08 12:06:08 38° 262° (W) 12:10:07 435.000
Oscar 11 07 Jul 12:02:16 12:06:26 45° 289° (WNW) 12:10:34 145.826/435.025
Cosmos 2499 07 Jul 12:04:20 12:11:23 82° 280° (W) 12:18:41 435.465 / 435.565
HO-68 07 Jul 12:04:22 12:10:40 34° 301° (WNW) 12:16:52 435.675
ISS 07 Jul 12:06:55 12:09:58 36° 8° (N) 12:13:01 145.825
POPSAT HIP 1 07 Jul 12:10:55 12:15:09 70° 258° (WSW) 12:19:23 437.405
QB50P2 07 Jul 12:11:04 12:15:18 67° 258° (WSW) 12:19:32 145.880/145.840
CUTE 1.7 + AOD 2 07 Jul 12:11:25 12:13:12 12° 300° (WNW) 12:14:49 437.475
CUBEBUG 2 07 Jul 12:12:42 12:16:35 36° 290° (WNW) 12:20:31 437.445
GONETS M04 07 Jul 12:13:46 12:20:35 23° 302° (WNW) 12:27:06
CANX-2 07 Jul 12:16:21 12:17:00 10° 301° (WNW) 12:17:26 2200.000
50 SAT 07 Jul 12:33:32 12:37:24 57° 100° (E) 12:41:17 437.505
AISAT 07 Jul 12:34:51 12:39:09 50° 100° (E) 12:43:26 437.250
FUNcube-1 07 Jul 12:35:31 12:39:22 34° 291° (WNW) 12:43:14 145.935
CUBEBUG 1 07 Jul 12:42:31 12:46:30 34° 96° (E) 12:50:27 437.445
UNISAT 6 07 Jul 12:45:14 12:47:45 15° 271° (W) 12:50:06 437.425
DELFI C3 07 Jul 12:49:06 12:52:10 20° 295° (WNW) 12:55:09 145.870
QB50P1 07 Jul 12:50:23 12:54:03 27° 266° (W) 12:57:40 145.935-145.965
Oscar 19 07 Jul 12:50:30 12:53:49 18° 59° (ENE) 12:57:17 437.125/150
UWE-3 07 Jul 12:57:44 13:00:37 18° 296° (WNW) 13:03:24 435.000/436.395/437.385
NANOSAT C BR1 07 Jul 13:03:50 13:07:05 21° 268° (W) 13:10:14 145.865
DUCHIFAT 1 07 Jul 13:09:52 13:12:54 19° 269° (W) 13:15:50 145.980
BUGSAT 1 07 Jul 13:11:28 13:15:00 25° 266° (W) 13:18:26 437.445
ESTCUBE 1 07 Jul 13:18:42 13:23:17 88° 281° (W) 13:27:48 437.505/2401.250
POLYITAN 1 07 Jul 13:20:03 13:22:27 14° 271° (W) 13:24:41 437.675
DX 1 07 Jul 13:20:13 13:24:11 34° 292° (WNW) 13:28:05 434.975-435.025
PHONESAT 2.4 07 Jul 13:20:59 13:23:07 15° 201° (SSW) 13:25:14 2401.200-2431.200
VELOX 1 07 Jul 13:23:06 13:27:26 55° 288° (WNW) 13:31:43 145.980
Gurwin Techsat 1B 07 Jul 13:23:58 13:25:55 12° 54° (NE) 13:28:06 435.225
HUMSAT D 07 Jul 13:29:11 13:32:25 21° 294° (WNW) 13:35:34 437.325/437.525
SPROUT 07 Jul 13:31:50 13:35:44 34° 96° (E) 13:39:39 437.525
UKube-1 07 Jul 13:36:18 13:39:56 26° 295° (WNW) 13:43:31 .
ISS 07 Jul 13:43:19 13:46:34 80° 209° (SSW) 13:49:48 145.825
YUBILEINY 07 Jul 13:47:28 13:54:42 29° 61° (ENE) 14:02:09 435.215
RS-15 07 Jul 13:54:59 14:04:36 29° 255° (WSW) 14:14:02 29.354- 29.394
TISAT 1 07 Jul 14:00:13 14:04:14 44° 99° (E) 14:08:14 437.305
Cosmos 2499 07 Jul 14:01:31 14:06:02 17° 305° (NW) 14:10:21 435.465 / 435.565
50 SAT 07 Jul 14:09:23 14:11:39 15° 297° (WNW) 14:13:46 437.505
AISAT 07 Jul 14:12:12 14:15:25 20° 297° (WNW) 14:18:31 437.250
BEESAT 3 07 Jul 14:12:56 14:15:09 14° 30° (NNE) 14:17:25 437.485
Cosmos 2491 07 Jul 14:17:26 14:22:14 17° 75° (ENE) 14:27:31 435.465 / 435.565
CUBEBUG 1 07 Jul 14:19:03 14:22:45 27° 294° (WNW) 14:26:22 437.445
BEESAT 07 Jul 14:22:49 14:25:29 15° 88° (E) 14:28:19 436.000
Oscar 19 07 Jul 14:27:33 14:32:40 74° 257° (WSW) 14:37:49 437.125/150
BEESAT 2 07 Jul 14:29:45 14:32:15 16° 31° (NNE) 14:34:49 435.950
SWISSCUBE 07 Jul 14:38:10 14:41:54 23° 92° (E) 14:45:44 437.505
ITUPSAT 1 07 Jul 14:45:04 14:48:55 24° 92° (E) 14:52:50 437.325
AO-7 07 Jul 14:45:39 14:51:57 26° 49° (NE) 14:58:29 29.400- 29.500
ITAMSAT 1 07 Jul 14:46:30 14:51:33 52° 70° (ENE) 14:56:40 435.822/435.867
ESTCUBE 1 07 Jul 14:57:33 14:59:30 12° 302° (WNW) 15:01:15 437.505/2401.250
Gurwin Techsat 1B 07 Jul 14:59:46 15:05:02 70° 73° (ENE) 15:10:22 435.225
SPROUT 07 Jul 15:08:07 15:11:43 26° 294° (WNW) 15:15:12 437.525
AIST 1 07 Jul 15:13:12 15:15:21 14° 85° (E) 15:17:43
ISS 07 Jul 15:20:46 15:22:32 14° 225° (SW) 15:24:15 145.825
JAS-2 07 Jul 15:24:52 15:29:31 34° 64° (ENE) 15:34:34 435.910
PCSat 07 Jul 15:31:31 15:36:04 29° 111° (ESE) 15:40:43 145.827
TISAT 1 07 Jul 15:36:38 15:39:44 20° 296° (WNW) 15:42:45 437.305
YUBILEINY 07 Jul 15:43:47 15:52:32 74° 265° (W) 16:01:16 435.215
BEESAT 3 07 Jul 15:49:48 15:53:53 68° 51° (NE) 15:57:53 437.485
BEESAT 07 Jul 15:59:06 16:03:55 71° 287° (WNW) 16:08:41 436.000
BEESAT 2 07 Jul 16:06:53 16:11:01 79° 54° (NE) 16:15:03 435.950
Cosmos 2491 07 Jul 16:08:58 16:17:45 76° 96° (E) 16:26:34 435.465 / 435.565
AIST 2 07 Jul 16:10:10 16:13:53 29° 41° (NE) 16:17:34 435.215
SWISSCUBE 07 Jul 16:15:24 16:20:02 47° 290° (WNW) 16:24:36 437.505
KKS-1 07 Jul 16:18:15 16:22:20 35° 97° (E) 16:26:26 437.445
HORYU 2 07 Jul 16:20:37 16:24:58 60° 72° (ENE) 16:29:21 437.375
ITUPSAT 1 07 Jul 16:22:26 16:27:02 45° 291° (WNW) 16:31:35 437.325
ITAMSAT 1 07 Jul 16:27:13 16:31:24 23° 269° (W) 16:35:30 435.822/435.867
AO-7 07 Jul 16:35:26 16:43:49 88° 70° (ENE) 16:52:15 29.400- 29.500
Cosmos 2504 07 Jul 16:39:59 16:46:44 36° 69° (ENE) 16:54:01 435.465 / 435.565
Gurwin Techsat 1B 07 Jul 16:42:01 16:45:39 18° 272° (W) 16:49:05 435.225
AIST 1 07 Jul 16:48:09 16:52:31 63° 282° (WNW) 16:56:55
STARS 07 Jul 17:01:32 17:05:53 61° 101° (E) 17:10:13 437.465
MOZHAYETS 4 07 Jul 17:01:45 17:03:47 13° 86° (E) 17:06:05
O/OREOS (USA 219) 07 Jul 17:09:26 17:13:53 54° 61° (ENE) 17:18:22 437.305
JAS-2 07 Jul 17:09:56 17:14:42 35° 266° (W) 17:19:45 435.910
PCSat 07 Jul 17:13:59 17:19:15 51° 310° (NW) 17:24:34 145.827
SO-50 07 Jul 17:17:57 17:22:38 62° 123° (ESE) 17:27:30 436.795
BEESAT 3 07 Jul 17:29:06 17:31:22 14° 248° (WSW) 17:33:27 437.485
BEESAT 07 Jul 17:39:36 17:40:57 11° 304° (NW) 17:42:04 436.000
YUBILEINY 07 Jul 17:42:54 17:47:58 16° 285° (WNW) 17:52:34 435.215
BEESAT 2 07 Jul 17:46:46 17:48:31 12° 249° (WSW) 17:50:06 435.950
CUTE-I 07 Jul 17:48:26 17:52:25 22° 61° (ENE) 17:56:32 437.470
AIST 2 07 Jul 17:48:36 17:52:35 41° 241° (WSW) 17:56:28 435.215
KKS-1 07 Jul 17:55:07 17:58:52 26° 294° (WNW) 18:02:30 437.445
HORYU 2 07 Jul 17:59:20 18:02:04 15° 271° (W) 18:04:38 437.375
Cosmos 2491 07 Jul 18:08:15 18:15:40 28° 299° (WNW) 18:22:53 435.465 / 435.565
Cubesat XI-IV 07 Jul 18:22:30 18:27:28 40° 67° (ENE) 18:32:30 437.490
GONETS M04 07 Jul 18:26:01 18:29:10 13° 45° (NE) 18:32:51
AO-7 07 Jul 18:31:27 18:37:49 22° 272° (W) 18:43:51 29.400- 29.500
Cosmos 2504 07 Jul 18:31:58 18:39:14 53° 268° (W) 18:46:59 435.465 / 435.565
MOZHAYETS 4 07 Jul 18:37:00 18:41:41 77° 284° (WNW) 18:46:19
STARS 07 Jul 18:39:06 18:41:55 17° 298° (WNW) 18:44:36 437.465
O/OREOS (USA 219) 07 Jul 18:49:47 18:52:57 18° 258° (WSW) 18:55:59 437.305
CUSAT 1 07 Jul 18:52:06 18:54:05 19° 70° (ENE) 18:56:06 437.405
SO-50 07 Jul 18:59:27 19:03:35 27° 324° (NW) 19:07:47 436.795
PCSat 07 Jul 19:00:58 19:04:03 15° 333° (NNW) 19:07:00 145.827
HO-68 07 Jul 19:04:39 19:07:59 14° 46° (NE) 19:11:37 435.675
CUBESAT XI-V 07 Jul 19:13:56 19:17:47 25° 92° (E) 19:21:40 437.345
CUTE-I 07 Jul 19:26:45 19:32:05 63° 258° (WSW) 19:37:27 437.470
BRITE-PL 07 Jul 19:33:32 19:37:32 23° 65° (ENE) 19:41:26 437.365/2234.400
PRISM 07 Jul 19:33:52 19:34:35 10° 86° (E) 19:35:32 437.425
CUTE 1.7 + AOD 2 07 Jul 19:57:03 19:57:54 11° 59° (ENE) 19:58:57 437.475
STRAND 1 07 Jul 19:57:12 20:01:18 24° 92° (E) 20:05:29 437.568
CANX-2 07 Jul 19:59:59 20:01:45 13° 60° (ENE) 20:03:42 2200.000
Cubesat XI-IV 07 Jul 20:02:52 20:07:41 32° 265° (W) 20:12:27 437.490
MOZHAYETS 4 07 Jul 20:16:41 20:18:10 11° 303° (WNW) 20:19:26
GONETS M04 07 Jul 20:20:18 20:28:46 53° 72° (ENE) 20:37:13
DANDE 07 Jul 20:21:14 20:23:40 27° 265° (W) 20:25:55 436.750
GOMX 1 07 Jul 20:27:50 20:32:28 41° 71° (ENE) 20:36:51 467.674
CUSAT 1 07 Jul 20:35:51 20:36:29 10° 269° (W) 20:36:59 437.405
SEEDS 07 Jul 20:36:54 20:40:02 21° 65° (ENE) 20:43:17 437.485
AAUSAT CUBESAT 2 07 Jul 20:39:30 20:42:00 16° 63° (ENE) 20:44:38 437.432
SO-50 07 Jul 20:44:19 20:45:49 11° 347° (NNW) 20:47:15 436.795
HO-68 07 Jul 20:47:27 20:54:23 57° 66° (ENE) 21:01:22 435.675
CUBESAT XI-V 07 Jul 20:50:59 20:55:23 40° 291° (WNW) 20:59:42 437.345
DOVE 4 07 Jul 20:54:19 20:58:48 45° 71° (ENE) 21:03:04 437.250
PRISM 07 Jul 21:06:27 21:10:40 80° 286° (WNW) 21:14:51 437.425
COMPASS 1 07 Jul 21:07:24 21:11:08 34° 69° (ENE) 21:14:57 437.405
BRITE-PL 07 Jul 21:10:33 21:15:48 54° 260° (W) 21:20:42 437.365/2234.400
CINEMA 3 07 Jul 21:13:40 21:17:34 33° 69° (ENE) 21:21:24 145.822/145.860
Oscar 11 07 Jul 21:24:31 21:27:51 23° 65° (ENE) 21:31:17 145.826/435.025
ZACube-1 07 Jul 21:25:22 21:27:29 14° 62° (ENE) 21:29:44 437.345
CUTE 1.7 + AOD 2 07 Jul 21:28:57 21:33:10 86° 77° (ENE) 21:37:26 437.475
CANX-2 07 Jul 21:32:55 21:37:08 78° 257° (WSW) 21:41:24 2200.000
STRAND 1 07 Jul 21:35:50 21:40:48 49° 291° (WNW) 21:45:43 437.568
CUBEBUG 2 07 Jul 21:37:37 21:41:12 28° 68° (ENE) 21:44:48 437.445
Cosmos 2499 07 Jul 21:50:33 21:57:59 44° 71° (ENE) 22:06:00 435.465 / 435.565
FUNcube-1 07 Jul 21:58:13 22:01:45 28° 68° (ENE) 22:05:19 145.935
M-CUBED/EXP-1 PRIME 07 Jul 22:00:30 22:04:05 25° 100° (E) 22:07:54 437.505
DELFI C3 07 Jul 22:03:21 22:07:02 36° 70° (ENE) 22:10:47 145.870
GOMX 1 07 Jul 22:06:32 22:10:44 26° 267° (W) 22:14:39 467.674
SEEDS 07 Jul 22:11:39 22:15:36 41° 263° (W) 22:19:36 437.485
AAUSAT CUBESAT 2 07 Jul 22:13:08 22:17:13 56° 260° (W) 22:21:20 437.432
GONETS M04 07 Jul 22:17:34 22:25:27 39° 274° (W) 22:33:10
UWE-3 07 Jul 22:20:12 22:24:20 61° 74° (ENE) 22:28:27 435.000/436.395/437.385
SO-50 07 Jul 22:27:17 22:28:35 11° 12° (NNE) 22:29:58 436.795
DOVE 4 07 Jul 22:33:07 22:36:47 21° 268° (W) 22:40:12 437.250
PCSat 07 Jul 22:33:17 22:36:01 14° 25° (NNE) 22:38:51 145.827
HO-68 07 Jul 22:36:13 22:42:32 32° 266° (W) 22:48:45 435.675
DX 1 07 Jul 22:42:26 22:46:20 34° 68° (ENE) 22:50:19 434.975-435.025
COMPASS 1 07 Jul 22:43:27 22:46:53 24° 267° (W) 22:50:17 437.405
PRISM 07 Jul 22:45:00 22:45:26 10° 302° (WNW) 22:45:40 437.425
ESTCUBE 1 07 Jul 22:46:23 22:49:04 16° 61° (ENE) 22:51:54 437.505/2401.250
HUMSAT D 07 Jul 22:47:27 22:51:17 40° 70° (ENE) 22:55:09 437.325/437.525
VELOX 1 07 Jul 22:47:53 22:51:20 23° 64° (ENE) 22:54:52 145.980
CINEMA 3 07 Jul 22:51:04 22:54:50 26° 266° (W) 22:58:26 145.822/145.860
AUBIESAT-1 07 Jul 22:56:43 23:01:01 79° 107° (ESE) 23:05:36 437.475
UKube-1 07 Jul 22:57:20 23:01:27 43° 69° (ENE) 23:05:35 .
ZACube-1 07 Jul 22:59:15 23:03:24 66° 259° (WSW) 23:07:32 437.345
Oscar 11 07 Jul 22:59:47 23:03:50 40° 263° (W) 23:07:55 145.826/435.025
CUBEBUG 2 07 Jul 23:14:08 23:17:53 29° 265° (W) 23:21:32 437.445
50 SAT 07 Jul 23:20:15 23:23:55 46° 72° (ENE) 23:27:38 437.505
FUNcube-1 07 Jul 23:34:22 23:38:03 29° 265° (W) 23:41:40 145.935
M-CUBED/EXP-1 PRIME 07 Jul 23:34:57 23:38:57 40° 295° (WNW) 23:43:10 437.505
AISAT 07 Jul 23:35:06 23:39:32 66° 73° (ENE) 23:43:59 437.250
DELFI C3 07 Jul 23:39:09 23:42:16 21° 268° (W) 23:45:20 145.870
ANTELSAT 07 Jul 23:39:55 23:43:40 27° 94° (E) 23:47:31 437.575/2403.000
CUBEBUG 1 07 Jul 23:41:10 23:45:20 41° 70° (ENE) 23:49:31 437.445
Cosmos 2499 07 Jul 23:43:47 23:51:13 45° 270° (W) 23:59:04 435.465 / 435.565
TIGRISAT 07 Jul 23:50:24 23:54:22 33° 96° (E) 23:58:26 435.000
POPSAT HIP 1 07 Jul 23:54:23 23:56:50 15° 89° (E) 23:59:26 437.405
QB50P2 07 Jul 23:54:34 23:57:09 16° 90° (E) 23:59:53 145.880/145.840
UWE-3 07 Jul 23:59:08 00:01:20 14° 272° (W) 00:03:21 435.000/436.395/437.385
SO-50 08 Jul 00:06:43 00:10:52 26° 35° (NE) 00:15:01 436.795
PCSat 08 Jul 00:15:39 00:20:53 46° 49° (NE) 00:26:06 145.827
DX 1 08 Jul 00:18:52 00:22:38 27° 265° (W) 00:26:22 434.975-435.025
ESTCUBE 1 08 Jul 00:20:55 00:25:27 69° 258° (WSW) 00:30:02 437.505/2401.250
VELOX 1 08 Jul 00:23:24 00:27:40 43° 262° (W) 00:31:56 145.980
Cosmos 2491 08 Jul 00:23:24 00:24:08 10° 41° (NE) 00:25:27 435.465 / 435.565
HUMSAT D 08 Jul 00:24:13 00:27:14 19° 269° (W) 00:30:11 437.325/437.525
SPROUT 08 Jul 00:28:37 00:32:36 38° 70° (ENE) 00:36:38 437.525
UNISAT 6 08 Jul 00:31:32 00:35:57 88° 98° (E) 00:40:28 437.425
QB50P1 08 Jul 00:31:56 00:35:51 37° 97° (E) 00:39:47 145.935-145.965
AUBIESAT-1 08 Jul 00:32:50 00:35:20 15° 303° (WNW) 00:37:46 437.475
UKube-1 08 Jul 00:34:27 00:37:47 21° 268° (W) 00:41:03 .
NANOSAT C BR1 08 Jul 00:44:29 00:48:35 50° 99° (E) 00:52:41 145.865
DUCHIFAT 1 08 Jul 00:50:02 00:54:11 56° 100° (E) 00:58:18 145.980
BUGSAT 1 08 Jul 00:50:06 00:53:52 36° 97° (E) 00:57:36 437.445
TISAT 1 08 Jul 00:54:51 00:58:56 48° 71° (ENE) 01:03:01 437.305
50 SAT 08 Jul 00:56:30 00:58:51 15° 270° (W) 01:01:05 437.505
POLYITAN 1 08 Jul 01:00:05 01:04:19 77° 103° (ESE) 01:08:32 437.675
AISAT 08 Jul 01:14:04 01:16:37 14° 272° (W) 01:18:59 437.250
ANTELSAT 08 Jul 01:16:30 01:20:31 34° 291° (WNW) 01:24:33 437.575/2403.000
CUBEBUG 1 08 Jul 01:18:21 01:21:53 22° 268° (W) 01:25:19 437.445
TIGRISAT 08 Jul 01:27:17 01:31:04 28° 293° (WNW) 01:34:51 435.000
POPSAT HIP 1 08 Jul 01:28:58 01:33:06 54° 288° (WNW) 01:37:11 437.405
QB50P2 08 Jul 01:29:17 01:33:25 52° 288° (WNW) 01:37:31 145.880/145.840
BEESAT 08 Jul 01:31:42 01:35:32 25° 64° (ENE) 01:39:27 436.000
SO-50 08 Jul 01:46:55 01:51:53 69° 236° (SW) 01:56:44 436.795
SWISSCUBE 08 Jul 01:47:18 01:51:38 36° 67° (ENE) 01:56:03 437.505
ITUPSAT 1 08 Jul 01:54:28 01:58:52 38° 68° (ENE) 02:03:21 437.325
PCSat 08 Jul 01:59:22 02:04:10 32° 248° (WSW) 02:08:54 145.827
SPROUT 08 Jul 02:05:23 02:08:51 23° 268° (W) 02:12:13 437.525
QB50P1 08 Jul 02:08:10 02:11:33 23° 294° (WNW) 02:14:50 145.935-145.965
RS-15 08 Jul 02:09:18 02:19:05 42° 110° (ESE) 02:29:20 29.354- 29.394
UNISAT 6 08 Jul 02:10:18 02:12:11 12° 300° (WNW) 02:13:53 437.425
Cosmos 2491 08 Jul 02:15:56 02:24:12 44° 69° (ENE) 02:32:28 435.465 / 435.565
NANOSAT C BR1 08 Jul 02:21:11 02:24:06 18° 297° (WNW) 02:26:55 145.865
BUGSAT 1 08 Jul 02:25:59 02:29:09 22° 295° (WNW) 02:32:14 437.445
DUCHIFAT 1 08 Jul 02:26:54 02:29:36 16° 297° (WNW) 02:32:10 145.980
STARS 08 Jul 02:28:57 02:29:36 10° 57° (ENE) 02:30:28 437.465
TISAT 1 08 Jul 02:32:04 02:35:00 18° 269° (W) 02:37:49 437.305
Oscar 19 08 Jul 02:36:24 02:40:56 31° 95° (E) 02:45:31 437.125/150
POLYITAN 1 08 Jul 02:37:41 02:39:42 13° 300° (WNW) 02:41:32 437.675
AIST 1 08 Jul 02:52:25 02:56:34 42° 75° (ENE) 03:00:41
YUBILEINY 08 Jul 02:53:29 03:00:17 28° 82° (E) 03:07:22 435.215
ITAMSAT 1 08 Jul 02:57:53 03:00:37 15° 87° (E) 03:03:33 435.822/435.867
BEESAT 08 Jul 03:08:35 03:13:09 44° 261° (W) 03:17:46 436.000
Gurwin Techsat 1B 08 Jul 03:13:45 03:17:46 22° 90° (E) 03:21:56 435.225
KKS-1 08 Jul 03:19:00 03:23:16 47° 70° (ENE) 03:27:33 437.445
SWISSCUBE 08 Jul 03:25:21 03:29:34 29° 266° (W) 03:33:45 437.505
ITUPSAT 1 08 Jul 03:32:43 03:36:52 28° 266° (W) 03:40:59 437.325
STARS 08 Jul 04:00:58 04:05:21 78° 75° (ENE) 04:09:45 437.465
MOZHAYETS 4 08 Jul 04:06:16 04:09:21 18° 62° (ENE) 04:12:33
Cosmos 2491 08 Jul 04:12:57 04:21:12 47° 272° (W) 04:29:19 435.465 / 435.565
JAS-2 08 Jul 04:13:35 04:19:21 30° 92° (E) 04:25:46 435.910
Oscar 19 08 Jul 04:15:38 04:20:22 38° 293° (WNW) 04:25:03 437.125/150
RS-15 08 Jul 04:20:05 04:31:00 67° 315° (NW) 04:42:22 29.354- 29.394
AIST 1 08 Jul 04:30:46 04:33:57 20° 273° (W) 04:36:59
AO-7 08 Jul 04:34:42 04:41:04 24° 90° (E) 04:47:41 29.400- 29.500
ITAMSAT 1 08 Jul 04:35:37 04:40:52 82° 286° (WNW) 04:46:05 435.822/435.867
YUBILEINY 08 Jul 04:47:45 04:56:26 72° 283° (WNW) 05:05:10 435.215
Gurwin Techsat 1B 08 Jul 04:52:57 04:58:10 56° 290° (WNW) 05:03:21 435.225
KKS-1 08 Jul 04:56:51 05:00:11 20° 269° (W) 05:03:23 437.445
Cosmos 2504 08 Jul 05:16:31 05:21:15 21° 81° (E) 05:26:18 435.465 / 435.565
STARS 08 Jul 05:40:42 05:42:26 12° 273° (W) 05:43:56 437.465
MOZHAYETS 4 08 Jul 05:41:38 05:46:10 59° 259° (W) 05:50:44
HORYU 2 08 Jul 05:45:14 05:49:45 82° 104° (ESE) 05:54:14 437.375
JAS-2 08 Jul 05:58:12 06:04:47 62° 289° (WNW) 06:12:05 435.910
ITAMSAT 1 08 Jul 06:16:55 06:19:38 14° 304° (NW) 06:22:09 435.822/435.867
CUBESAT XI-V 08 Jul 06:19:53 06:24:08 35° 68° (ENE) 06:28:26 437.345
PRISM 08 Jul 06:26:14 06:28:10 13° 60° (ENE) 06:30:17 437.425
AO-7 08 Jul 06:26:30 06:34:56 82° 291° (WNW) 06:43:16 29.400- 29.500
RS-15 08 Jul 06:36:06 06:45:59 34° 346° (NNW) 06:56:13 29.354- 29.394
Cubesat XI-IV 08 Jul 06:38:48 06:40:39 12° 84° (E) 06:42:51 437.490
YUBILEINY 08 Jul 06:49:36 06:55:16 18° 308° (NW) 07:00:35 435.215
Cosmos 2504 08 Jul 07:05:51 07:12:44 73° 281° (W) 07:19:46 435.465 / 435.565
STRAND 1 08 Jul 07:15:36 07:20:30 46° 69° (ENE) 07:25:27 437.568
BEESAT 3 08 Jul 07:22:21 07:26:17 48° 121° (ESE) 07:30:15 437.485
HORYU 2 08 Jul 07:23:33 07:25:49 14° 301° (WNW) 07:27:56 437.375
O/OREOS (USA 219) 08 Jul 07:24:50 07:28:52 35° 107° (ESE) 07:32:57 437.305
GONETS M04 08 Jul 07:37:26 07:38:07 10° 70° (ENE) 07:39:30
